This demonstration page uses our WeatherBlox Daily Observations layout. Learn more.

Left ArrowRight Arrow

Hourly Observations for December 4, 2020

Temp ( °F °C ) Dew Point ( °F °C ) Humidity (%) Winds ( mph kmh ) Pressure ( in mb ) Visibility ( mi km ) Precip ( " mm )
12:15 am 00:15 Clear 31 -0.5 14 -9.8 50 50 W 7 11 30.21 1023 10 16.0934 0 0
12:35 am 00:35 Clear 31 -0.8 14 -10 50 50 W 8 13 30.2 1023 10 16.0934 0 0
12:55 am 00:55 Clear 31 -0.8 14 -10.1 50 50 WNW 8 13 30.2 1023 10 16.0934 0 0
1:15 am 01:15 Clear 29 -1.6 14 -10.1 53 53 WNW 8 13 30.21 1023 10 16.0934 0 0
1:35 am 01:35 Clear 28 -2.3 14 -10 56 56 WNW 8 13 30.21 1023 10 16.0934 0 0
1:55 am 01:55 Clear 28 -2.4 14 -10 56 56 WNW 7 11 30.21 1023 10 16.0934 0 0
2:15 am 02:15 Clear 28 -2.3 14 -10 56 56 WNW 7 11 30.21 1023 10 16.0934 0 0
2:35 am 02:35 Clear 28 -2.5 14 -10 57 57 WNW 7 11 30.21 1023 10 16.0934 0 0
2:55 am 02:55 Clear 28 -2.2 14 -10 56 56 WNW 8 13 30.21 1023 10 16.0934 0 0
3:15 am 03:15 Clear 28 -2.2 15 -9.7 57 57 WNW 9 15 30.21 1023 10 16.0934 0 0
3:35 am 03:35 Clear 28 -2 15 -9.5 57 57 WNW 7 11 30.2 1023 10 16.0934 0 0
3:55 am 03:55 Clear 28 -2 15 -9.5 57 57 WNW 7 11 30.2 1023 10 16.0934 0 0
4:15 am 04:15 Clear 28 -2 15 -9.5 57 57 WNW 7 11 30.2 1023 10 16.0934 0 0
4:35 am 04:35 Clear 29 -1.9 15 -9.3 57 57 WNW 8 13 30.2 1023 10 16.0934 0 0
4:55 am 04:55 Clear 28 -2.1 16 -9.1 59 59 WNW 8 13 30.21 1023 10 16.0934 0 0
5:15 am 05:15 Clear 26 -3.1 15 -9.2 63 63 WNW 9 15 30.22 1023 10 16.0934 0 0
5:35 am 05:35 Clear 27 -2.6 17 -8.3 65 65 WNW 9 15 30.21 1023 10 16.0934 0 0
5:55 am 05:55 Clear 27 -2.7 17 -8.5 65 65 WNW 8 13 30.21 1023 10 16.0934 0 0
6:15 am 06:15 Clear 27 -2.6 17 -8.1 66 66 WNW 8 13 30.21 1023 10 16.0934 0 0
6:35 am 06:35 Clear 28 -2.1 18 -7.6 66 66 WNW 8 13 30.21 1023 10 16.0934 0 0
6:55 am 06:55 Clear 30 -1.2 19 -7.5 63 63 WNW 9 15 30.2 1023 10 16.0934 0 0
7:15 am 07:15 Clear 29 -1.6 18 -7.6 64 64 WNW 9 15 30.2 1023 10 16.0934 0 0
7:35 am 07:35 Clear 29 -1.7 19 -7.5 65 65 WNW 9 15 30.21 1023 10 16.0934 0 0
7:55 am 07:55 Sunny 28 -2 19 -7.5 66 66 WNW 8 13 30.21 1023 10 16.0934 0 0
8:15 am 08:15 Sunny 29 -1.4 19 -7.1 66 66 WNW 8 13 30.22 1023 10 16.0934 0 0
8:35 am 08:35 Sunny 31 -0.8 20 -6.8 64 64 WNW 8 13 30.21 1023 10 16.0934 0 0
8:55 am 08:55 Sunny 33 0.3 21 -6.1 63 63 WNW 8 13 30.2 1023 10 16.0934 0 0
9:15 am 09:15 Sunny 36 2.4 22 -5.5 56 56 NW 9 15 30.19 1022 10 16.0934 0 0
9:35 am 09:35 Sunny 38 3.6 22 -5.5 52 52 WNW 10 17 30.18 1022 10 16.0934 0 0
9:55 am 09:55 Sunny 40 4.5 22 -5.5 49 49 WNW 10 17 30.17 1022 10 16.0934 0 0
10:15 am 10:15 Sunny 43 6 23 -5 46 46 NW 9 15 30.17 1022 10 16.0934 0 0
10:35 am 10:35 Sunny 45 7.4 24 -4.7 42 42 NW 9 15 30.16 1021 10 16.0934 0 0
10:55 am 10:55 Sunny 48 8.7 24 -4.7 39 39 NW 12 19 30.14 1021 10 16.0934 0 0
11:15 am 11:15 Sunny 49 9.6 24 -4.5 37 37 NW 10 17 30.14 1021 10 16.0934 0 0
11:35 am 11:35 Sunny 51 10.7 24 -4.2 35 35 NW 9 15 30.12 1020 10 16.0934 0 0
11:55 am 11:55 Sunny 53 11.7 25 -4.1 33 33 NW 9 15 30.11 1020 10 16.0934 0 0
12:15 pm 12:15 Sunny 55 12.6 25 -4 31 31 NW 10 17 30.1 1019 10 16.0934 0 0
12:35 pm 12:35 Sunny 56 13.3 25 -3.8 31 31 NW 8 13 30.08 1019 10 16.0934 0 0
12:55 pm 12:55 Sunny 56 13.6 25 -3.9 30 30 WNW 10 17 30.08 1019 10 16.0934 0 0
1:15 pm 13:15 Sunny 58 14.2 25 -3.9 29 29 NW 10 17 30.07 1018 10 16.0934 0 0
1:35 pm 13:35 Sunny 58 14.4 25 -3.9 28 28 NW 10 17 30.05 1018 10 16.0934 0 0
1:55 pm 13:55 Sunny 59 14.9 25 -3.7 28 28 NW 8 13 30.05 1018 10 16.0934 0 0
2:15 pm 14:15 Sunny 59 15 25 -3.7 28 28 NW 9 15 30.04 1017 10 16.0934 0 0
2:35 pm 14:35 Sunny 60 15.3 26 -3.6 27 27 NW 9 15 30.04 1017 10 16.0934 0 0
2:55 pm 14:55 Sunny 60 15.3 26 -3.6 27 27 NW 7 11 30.04 1017 10 16.0934 0 0
3:15 pm 15:15 Sunny 59 15.1 25 -3.7 27 27 NW 8 13 30.04 1017 10 16.0934 0 0
3:35 pm 15:35 Sunny 59 15.2 25 -3.7 27 27 WNW 9 15 30.05 1018 10 16.0934 0 0
3:55 pm 15:55 Sunny 59 15 25 -4 27 27 WNW 8 13 30.05 1018 10 16.0934 0 0
4:15 pm 16:15 Sunny 58 14.5 25 -4.1 28 28 WNW 8 13 30.05 1018 10 16.0934 0 0
4:35 pm 16:35 Sunny 56 13.6 24 -4.3 29 29 WNW 5 7 30.06 1018 10 16.0934 0 0
4:55 pm 16:55 Sunny 53 11.5 24 -4.7 32 32 WNW 7 11 30.08 1019 10 16.0934 0 0
5:15 pm 17:15 Clear 49 9.4 22 -5.5 35 35 W 7 11 30.11 1020 10 16.0934 0 0
5:35 pm 17:35 Clear 48 8.9 22 -5.4 36 36 W 7 11 30.11 1020 10 16.0934 0 0
5:55 pm 17:55 Clear 49 9.3 23 -5.2 36 36 W 6 9 30.13 1020 10 16.0934 0 0
6:15 pm 18:15 Clear 47 8.5 22 -5.8 36 36 W 7 11 30.14 1021 10 16.0934 0 0
6:35 pm 18:35 Clear 44 6.9 21 -6 40 40 W 8 13 30.15 1021 10 16.0934 0 0
6:55 pm 18:55 Clear 44 6.5 21 -6 41 41 W 8 13 30.15 1021 10 16.0934 0 0
7:15 pm 19:15 Clear 46 7.6 22 -5.5 39 39 W 8 13 30.15 1021 10 16.0934 0 0
7:35 pm 19:35 Clear 46 7.6 22 -5.7 39 39 W 8 13 30.15 1021 10 16.0934 0 0
7:55 pm 19:55 Clear 42 5.8 21 -6 43 43 W 7 11 30.17 1022 10 16.0934 0 0
8:15 pm 20:15 Clear 44 6.5 22 -5.5 42 42 W 9 15 30.17 1022 10 16.0934 0 0
8:35 pm 20:35 Clear 46 7.5 22 -5.7 39 39 W 9 15 30.17 1022 10 16.0934 0 0
8:55 pm 20:55 Clear 45 7 22 -5.6 41 41 WNW 8 13 30.18 1022 10 16.0934 0 0
9:15 pm 21:15 Clear 42 5.5 22 -5.7 45 45 WNW 8 13 30.2 1023 10 16.0934 0 0
9:35 pm 21:35 Clear 40 4.6 21 -5.9 47 47 WNW 9 15 30.21 1023 10 16.0934 0 0
9:55 pm 21:55 Clear 39 3.9 21 -6 49 49 W 7 11 30.22 1023 10 16.0934 0 0
10:15 pm 22:15 Clear 40 4.3 21 -5.9 48 48 WNW 8 13 30.22 1024 10 16.0934 0 0
10:35 pm 22:35 Clear 38 3.1 21 -6.1 51 51 WNW 7 11 30.24 1024 10 16.0934 0 0
10:55 pm 22:55 Clear 36 2.4 21 -6.3 53 53 WNW 8 13 30.25 1024 10 16.0934 0 0
11:15 pm 23:15 Clear 35 1.9 21 -6.3 55 55 WNW 8 13 30.27 1025 10 16.0934 0 0
11:35 pm 23:35 Clear 36 2 21 -6.3 55 55 NW 10 17 30.27 1025 10 16.0934 0 0
11:55 pm 23:55 Clear 35 1.9 20 -6.4 55 55 NW 10 17 30.28 1025 10 16.0934 0 0

Powered by AerisWeather